Other Public Products
Issued by NWS Grand Forks, ND

Home | Current Version | Previous Version | Text Only | Print | Product List | Glossary On
Versions: 1 2 3 4 5 6 7 8 9 10 11 12 13 14 15 16 17 18 19 20 21 22 23 24 25 26 27 28 29 30 31 32 33 34 35 36 37 38 39 40 41 42 43 44 45 46 47 48 49 50
000
FPUS83 KFGF 282031
OPUFGF
PRAIRIE TO PINES WEATHER ROUNDUP
NATIONAL WEATHER SERVICE EASTERN NORTH DAKOTA/GRAND FORKS ND
300 PM CDT THU JUL 28 2016

 **SATELLITE DATA USED TO AUGMENT SKY COVER AT AUTOMATED STATIONS**
 *****  WEATHER ACROSS EASTERN NORTH DAKOTA  *****

CITY           SKY/WX    TMP DP  RH WIND       PRES   REMARKS
GRAND FORKS    MOSUNNY   76  58  53 N9        30.11F
GRAND FORKS AF MOSUNNY   75  58  54 N10       30.12F
GRAND CITY NWS   N/A     77 N/A N/A N7          N/A
BUXTON           N/A     78  62  57 N9          N/A
DEVILS LAKE    PTSUNNY   71  57  61 VRB3      30.15F
FARGO          PTSUNNY   80  62  54 N6        30.07F
WAHPETON ARPT  PTCLDY    77  54  44 CALM      30.08S
$$

 *****  WEATHER ACROSS CENTRAL AND WESTERN NORTH DAKOTA  *****

CITY           SKY/WX    TMP DP  RH WIND       PRES   REMARKS
JAMESTOWN      PTSUNNY   77  63  61 VRB3      30.11S
BISMARCK       CLOUDY    72  56  57 VRB3      30.14F
MINOT          PTSUNNY   78  52  40 E8        30.15F
MINOT AFB      NOT AVBL
GARRISON         N/A     69  54  58 CALM      30.16F
WILLISTON      CLOUDY    75  51  43 CALM      30.15F
DICKINSON      CLOUDY    64  59  83 E10       30.15S
HETTINGER      CLOUDY    73  59  61 E13       30.15S
$$

 *****  OTHER OBSERVATIONS NORTHEAST NORTH DAKOTA  *****

CITY           SKY/WX    TMP DP  RH WIND       PRES   REMARKS
WALHALLA       FAIR      72  68  88 N8        30.14F
LANGDON        FAIR      73  54  49 VRB6      30.16F
CAVALIER       FAIR      72  55  56 N10       30.13F
GRAFTON        FAIR      73  55  53 N10       30.14F
CANDO          MOCLDY    72  55  56 CALM      30.18S
FORT TOTTEN      N/A     74  60  60 NE3       29.95S
ROLLA            N/A     68  52  56 E6        30.18S
RUGBY          NOT AVBL
 ***** THE ABOVE OBSERVATIONS ARE NON NWS ARE NOT QUALITY
        CONTROLLED AND MAY MIS-REPORT RAIN FOR SNOW...
$$

 *****  OTHER OBSERVATIONS SOUTHEAST NORTH DAKOTA *****

CITY           SKY/WX    TMP DP  RH WIND       PRES   REMARKS
COOPERSTOWN    NOT AVBL
VALLEY CITY    CLOUDY    73  64  73 NE7       30.13S
OAKES            N/A    N/A N/A N/A MISG        N/A
GWINNER        NOT AVBL
SHEYENNE NWR     N/A     79  58  47 CALM      29.95S
BUFFALO          N/A     78  54  43 NE6         N/A
WYNDMERE         N/A    N/A N/A N/A W3          N/A
 ***** THE ABOVE OBSERVATIONS ARE NON NWS ARE NOT QUALITY
       CONTROLLED AND MAY MIS-REPORT RAIN FOR SNOW...
$$

  *****  WEATHER ACROSS NORTHERN MINNESOTA  *****

CITY           SKY/WX    TMP DP  RH WIND       PRES   REMARKS
FLAG ISLAND    SUNNY     70  52  52 N5        30.12S
WARROAD        SUNNY     72  57  60 E8        30.13S
ROSEAU         SUNNY     73  61  64 NE6       30.12S
HALLOCK        SUNNY     73  54  49 N3        30.12F
THF RVR FALLS  PTSUNNY   73  58  59 NW6       30.12F
HALSTAD          N/A     81  59  47 NE13        N/A
FOSSTON        MOSUNNY   75  57  53 N8        30.11S
BAUDETTE       PTSUNNY   74  57  55 N8        30.11F
WASKISH        SUNNY     75  57  53 W6        30.09F
CROOKSTON      MOSUNNY   75  61  60 N8        30.11S
$$
  *****  WEATHER ACROSS CENTRAL AND WEST MINNESOTA  *****

CITY           SKY/WX    TMP DP  RH WIND       PRES   REMARKS
BEMIDJI        PTSUNNY   75  55  50 N8        30.10S
PARK RAPIDS    MOSUNNY   77  52  41 NE3       30.08F
WADENA         CLOUDY    73  61  64 E5        30.08R
DETROIT LAKES  SUNNY     77  59  53 NW5       30.09F
MOORHEAD       MOSUNNY   75  63  64 N3        30.09R
FERGUS FALLS   CLOUDY    75  57  53 NW3       30.08S
ELBOW LAKE     FAIR      76  58  54 CALM      30.09S
MORRIS MN      CLOUDY    79  57  47 E7        30.07F
STAPLES        MOSUNNY   75  57  53 NE3       30.08S
WHEATON        MOSUNNY   79  63  57 CALM      30.09F
$$
  *****  WEATHER ELSEWHERE ACROSS MINNESOTA  *****

CITY           SKY/WX    TMP DP  RH WIND       PRES   REMARKS
DULUTH         CLOUDY    72  51  47 E14       30.10S
INTRNTL FALLS  SUNNY     75  53  46 VRB3      30.09F
ELY            SUNNY     73  48  40 CALM      30.09F
CLOQUET        MOSUNNY   70  50  49 E10G17    30.09F
BRAINERD       CLOUDY    74  56  53 N7        30.08F
HIBBING        SUNNY     75  53  46 VRB5      30.08F
ALEXANDRIA     CLOUDY    75  58  55 E10       30.10S
SAINT CLOUD    PTSUNNY   73  56  54 N10       30.06S
MINNEAPOLIS    CLOUDY    74  60  61 NE14G25   30.02S
$$

  *****  WEATHER ACROSS SOUTH DAKOTA  *****

CITY           SKY/WX    TMP DP  RH WIND       PRES   REMARKS
SIOUX FALLS    PTSUNNY   76  61  59 N3        30.05S
BROOKINGS      MOSUNNY   74  60  61 VRB5      30.07S
WATERTOWN      CLOUDY    80  58  46 E13       30.07F
HURON          SUNNY     80  59  48 N6        30.06S
SISSETON         N/A     77  60  55 VRB6      30.07F
ABERDEEN       MOSUNNY   78  62  57 E8        30.07F
MITCHELL       SUNNY     82  57  42 NW8       30.06S
PIERRE         CLOUDY    82  57  42 E9        30.05F
MOBRIDGE       CLOUDY    77  54  44 NE9       30.09F
RAPID CITY     CLOUDY    71  58  63 NW9       30.15S
$$

  *****  SOME WEATHER IN NEARBY STATES *****

CITY           SKY/WX    TMP DP  RH WIND       PRES   REMARKS
GLASGOW MT     MOSUNNY   74  57  55 VRB6      30.16F
GREAT FALLS MT SUNNY     81  46  29 NE10      30.16F
CHEYENNE WY    MOSUNNY   68  54  60 E12G18    30.26F
SCOTTSBLUFF NE SUNNY     74  56  53 VRB3      30.18F
OMAHA NE       MOSUNNY   85  64  49 N10       29.99F
DES MOINES IA  PTSUNNY   80  64  58 NW10      29.97S
DAVENPORT IA   SUNNY     79  68  69 NW13      29.90R
CHICAGO IL     LGT RAIN  74  71  91 CALM      29.88F FOG
EAU CLAIRE WI  CLOUDY    67  64  90 E12       30.00S
LA CROSSE WI   CLOUDY    67  63  87 N9        29.95F
$$

  *****  SOME NATIONAL WEATHER *****

CITY           SKY/WX    TMP DP  RH WIND       PRES   REMARKS
LA GUARDIA NY  PTSUNNY   88  70  55 S21       29.85R HX  93
RALEIGH NC     MOSUNNY   96  74  48 SW13G21   29.85F HX 107
ATLANTA GA     PTSUNNY   88  68  51 SW12      29.99F HX  91
NEW ORLEANS LA MOSUNNY   94  77  57 S14       30.00F HX 108
OKLAHOMA CITY  MOSUNNY   92  72  51 SE5       29.95F HX  99
ALBUQUERQUE NM MOSUNNY   93  43  17 SW8       30.18F
SALT LAKE CITY MOSUNNY   98  35  11 N9        30.08F HX  93
LOS ANGELES CA SUNNY     78  64  61 W12       29.90F
BOISE ID       SUNNY     95  40  14 NW10      30.04F HX  91
SEATTLE WA     SUNNY     81  60  48 NW12      30.12F
$$

*** WEATHER ACROSS MANITOBA...SASKATCHEWAN AND ONTARIO ***
                ***ONTARIO***

CITY           SKY/WX    TMP DP  RH WIND       PRES   REMARKS
GERALDTON      MOSUNNY   70  52  52 NW8       30.10S
THUNDER BAY    MOSUNNY   73  54  49 VRB2      30.08F
SIOUX LOOKOUT  MOSUNNY   72  48  43 NW7       30.13F
TORONTO        CLOUDY    84  59  42 SE9       29.88F
BIG TROUT LK   SUNNY     72  54  53 SW8       30.07F
PICKLE LAKE    MOSUNNY   70  45  40 VRB3      30.12F
DRYDEN         SUNNY     72  48  43 VRB6      30.13F
KENORA         MOSUNNY   72  52  49 N6        30.14F
$$
                *** MANITOBA***

CITY           SKY/WX    TMP DP  RH WIND       PRES   REMARKS
BRANDON        PTSUNNY   75  54  46 W3        30.16S
DAUPHIN        SUNNY     79  54  41 SW7       30.10F
ISLAND LAKE    MOSUNNY   77  50  38 NW3       30.07
PILOT MOUND      N/A     70  52  52 N6          N/A
THE PAS        MOSUNNY   81  61  50 VRB2      30.03F
THOMPSON       TSTM      68  64  88 N10       30.01S
WINNIPEG       MOSUNNY   73  54  49 N6        30.14F
LYNN LAKE      CLOUDY    77  57  50 MISG      30.03F
CHURCHILL      MOSUNNY   57  48  72 N17       30.08S
GILLAM         PTSUNNY   73  59  60 W8        30.02F
$$
                ***SASKATCHEWAN***

CITY           SKY/WX    TMP DP  RH WIND       PRES   REMARKS
ESTEVAN        PTSUNNY   73  54  49 VRB2      30.17F
KINDERSLEY     MOSUNNY   79  59  50 S9G20     30.11F
LLOYDMINSTER   PTSUNNY   81  57  44 W10       30.08F
PRINCE ALBERT  PTSUNNY   84  61  45 SW10      30.06F
REGINA         PTSUNNY   75  55  50 VRB6      30.16S
YORKTON        SUNNY     77  52  41 S5        30.14F   C1F1C2F2C3F3C4F4C5F5C6F6C7F7C8F8C9F9CaFaCbFbCcFcCdFdCe!


USA.gov is the U.S. government's official web portal to all federal, state and local government web resources and services.